Location: Go?cza
(50.3372°N, 19.9313°E)
Time: 15:44:33
(UTC+00:00)

Cosmos 1782 Rocket - Pass Details

Date: 23 May 2024
Orbit: 603 x 629 km, 82.5° (Epoch: 12 June)

Event Time Altitude Azimuth Distance (km) Brightness Sun altitude
Rises 00:12:31 0° 351° (N) 2,902 8.0 -16.0°
Reaches altitude 10° 00:14:47 10° 355° (N) 1,987 7.1 -15.8°
Maximum altitude 00:19:09 67° 78° (ENE) 669 3.8 -15.5°
Enters shadow 00:22:36 16° 159° (SSE) 1,614 5.3 -15.3°
